[[{"header":{"parameterUnit":"m.s-1","parameterCategory":1,"la1":30.2991,"la2":30.254,"lo1":-89.0895,"lo2":-89.0444,"dy":0.0017,"dx":0.0017,"nx":28,"ny":28,"refTime":"2023-09-10T09:00:00:Z","depth":0,"parameterNumber":2,"parameterNumberName":"U-component_of_WINDS"},"data":[0,0,0,0,0,0,0,0,0,0,0,0,0,0,0,0,0,0,0,0,0,0,0,0,0,0,0,0,0,0,0,0,0,0,0,0,0,0,0,0,0,0,0,0,0,0,0,0,0,0,0,0,0,0,0,0,0,0,-1.0491,-1.0491,0,-1.0509,-1.0509,-1.0509,-1.049,-1.0489,-1.0488,-1.0488,-1.0507,-1.0508,-1.0509,0,0,0,0,0,0,0,0,0,0,0,0,0,-1.0441,-1.0442,-1.0491,-1.0491,-1.0491,-1.0509,-1.0509,-1.0509,-1.049,-1.0489,-1.0488,-1.0487,-1.0506,-1.0508,-1.0509,0,0,0,0,0,0,0,0,0,0,0,0,0,-1.0461,-1.0442,-1.0491,-1.0484,-1.0483,-1.0509,-1.0509,-1.0509,-1.049,-1.0489,-1.0488,-1.0487,-1.0506,-1.0508,-1.0509,-1.0543,0,0,-1.0515,-1.0516,0,0,0,0,0,0,0,0,-1.046,-1.0463,-1.0485,-1.0484,-1.0484,-1.0496,-1.0498,-1.0521,-1.049,-1.0488,-1.0488,-1.0486,-1.0504,-1.0506,-1.0512,-1.0544,-1.0545,-1.0515,-1.0516,-1.0517,-1.0518,0,0,0,0,0,0,0,-1.0459,-1.0462,-1.0498,-1.0485,-1.0484,-1.048,-1.0482,-1.0502,-1.0502,-1.0488,-1.0486,-1.0489,-1.0504,-1.051,-1.0512,-1.0545,-1.0515,-1.0517,-1.0518,-1.0519,-1.0605,-1.0607,0,0,0,0,0,0,-1.0458,-1.0461,-1.0497,-1.0498,-1.0469,-1.0482,-1.0484,-1.0493,-1.0502,-1.0502,-1.049,-1.0488,-1.0508,-1.051,-1.0513,-1.0553,-1.0517,-1.0519,-1.052,-1.0604,-1.0606,-1.0607,0,0,0,0,0,0,-1.0457,-1.0461,-1.0497,-1.0479,-1.0484,-1.0484,-1.0495,-1.0494,-1.05,-1.0503,-1.0503,-1.0496,-1.0507,-1.051,-1.0536,-1.0553,-1.0519,-1.0521,-1.0603,-1.0605,-1.0606,-1.0633,0,0,0,0,0,0,-1.0456,-1.0461,-1.0474,-1.048,-1.0485,-1.0519,-1.0496,-1.0495,-1.0504,-1.0501,-1.0509,-1.051,-1.0506,-1.0533,-1.0537,-1.0555,-1.0523,-1.0601,-1.0604,-1.0606,-1.063,-1.0635,-1.0639,0,0,0,0,0,-1.0454,-1.048,-1.0474,-1.0479,-1.05,-1.052,-1.0523,-1.0518,-1.0505,-1.0518,-1.0519,-1.0509,-1.055,-1.0536,-1.054,-1.0559,-1.06,-1.0603,-1.0606,-1.0628,-1.0634,-1.0639,0,0,0,0,0,0,-1.0476,-1.0481,-1.0474,-1.0504,-1.0512,-1.0517,-1.0533,-1.0525,-1.0537,-1.0534,-1.0528,-1.053,-1.0557,-1.056,-1.0544,-1.0592,-1.0573,-1.0577,-1.0589,-1.0594,-1.0599,-1.0598,-1.0524,0,0,0,0,0,-1.0485,-1.05,-1.0503,-1.0529,-1.0533,-1.0532,-1.0541,-1.0537,-1.0545,-1.0548,-1.0551,-1.056,-1.0575,-1.0585,-1.0598,-1.0631,-1.0632,-1.0646,-1.065,-1.0654,-1.0657,-1.0675,-1.0681,-1.0616,-1.0616,-1.0616,0,0,-1.0502,-1.0507,-1.0517,-1.0534,-1.0539,-1.0556,-1.0535,-1.0553,-1.0566,-1.0551,-1.0575,-1.0578,-1.0587,-1.0616,-1.0629,-1.062,-1.0676,-1.0657,-1.066,-1.0662,-1.0678,-1.0685,-1.069,-1.0618,-1.0618,-1.0617,0,0,-1.0543,-1.0547,-1.0569,-1.0575,-1.0584,-1.0583,-1.0588,-1.0595,-1.0596,-1.062,-1.0609,-1.0624,-1.065,-1.0657,-1.0664,-1.0707,-1.0698,-1.0711,-1.0735,-1.0753,-1.0758,-1.0762,-1.0778,-1.0784,-1.0715,-1.0715,-1.0715,0,-1.0563,-1.0587,-1.0581,-1.0601,-1.0608,-1.0595,-1.0618,-1.0624,-1.0637,-1.0643,-1.0632,-1.0664,-1.0669,-1.07,-1.071,-1.0716,-1.0723,-1.071,-1.0757,-1.0762,-1.0766,-1.0781,-1.0787,-1.0716,-1.0716,-1.0716,-1.0716,0,-1.0613,-1.0629,-1.0646,-1.0659,-1.0668,-1.0689,-1.0687,-1.0697,-1.0692,-1.0693,-1.0718,-1.0723,-1.0738,-1.0745,-1.0741,-1.0775,-1.0769,-1.0758,-1.0739,-1.0774,-1.0788,-1.0793,-1.0719,-1.0718,-1.0718,-1.0717,0,0,-1.0668,-1.0677,-1.0683,-1.0689,-1.0697,-1.0711,-1.0731,-1.0745,-1.0754,-1.0764,-1.0781,-1.0803,-1.0793,-1.08,-1.0797,-1.0812,-1.0846,-1.0799,-1.0799,-1.0807,-1.0885,-1.0893,-1.09,-1.084,-1.0841,-1.0842,-1.0884,0,-1.0709,-1.0743,-1.0739,-1.0772,-1.0788,-1.0776,-1.0793,-1.0801,-1.0802,-1.0816,-1.0817,-1.0833,-1.0818,-1.0822,-1.0837,-1.0839,-1.0861,-1.0835,-1.0856,-1.0857,-1.0855,-1.0907,-1.0917,-1.0956,-1.089,-1.0891,-1.0891,0,-1.0761,-1.0772,-1.0807,-1.0813,-1.082,-1.0836,-1.0848,-1.0862,-1.087,-1.0869,-1.0878,-1.0872,-1.0892,-1.0873,-1.0902,-1.0884,-1.0892,-1.0895,-1.0896,-1.0898,-1.0876,-1.0911,-1.0969,-1.0975,-1.09,-1.0899,-1.0898,0,-1.0798,-1.0822,-1.0846,-1.0851,-1.0859,-1.087,-1.0874,-1.0881,-1.089,-1.0902,-1.0907,-1.0921,-1.0929,-1.094,-1.0937,-1.0923,-1.0966,-1.0947,-1.0967,-1.0967,-1.0977,-1.0977,-1.1037,-1.0982,-1.0982,-1.0982,-1.0982,0,-1.0845,-1.0867,-1.0863,-1.0878,-1.0902,-1.0896,-1.0921,-1.0923,-1.093,-1.0945,-1.0935,-1.095,-1.0946,-1.096,-1.0958,-1.0983,-1.0986,-1.0987,-1.0986,-1.0988,-1.0988,-1.0993,-1.0991,-1.0983,-1.0983,-1.0983,-1.0982,0,-1.0891,-1.0889,-1.0914,-1.092,-1.0921,-1.0939,-1.0944,-1.0958,-1.0958,-1.0978,-1.0982,-1.0982,-1.0999,-1.0997,-1.1016,-1.1015,-1.1045,-1.1041,-1.1042,-1.1041,-1.1062,-1.106,-1.1129,-1.1138,-1.1076,-1.1077,-1.1077,0,-1.0921,-1.0937,-1.0944,-1.0954,-1.0958,-1.0973,-1.0982,-1.0978,-1.0988,-1.0998,-1.1011,-1.1027,-1.1039,-1.1067,-1.1069,-1.1083,-1.108,-1.1103,-1.1082,-1.1083,-1.1081,-1.108,-1.1082,-1.1107,-1.1108,-1.1108,-1.1109,0,-1.0974,-1.0972,-1.0985,-1.0998,-1.1009,-1.1019,-1.1028,-1.1037,-1.1033,-1.1045,-1.1061,-1.1071,-1.109,-1.1106,-1.112,-1.1124,-1.1116,-1.1115,-1.1121,-1.1123,-1.1123,-1.1124,-1.1054,-1.1114,-1.1113,-1.1113,-1.1112,-1.1112,-1.1013,-1.1028,-1.1035,-1.105,-1.1056,-1.1065,-1.1078,-1.108,-1.1093,-1.1108,-1.1105,-1.1124,-1.1132,-1.1149,-1.1155,-1.117,-1.1162,-1.117,-1.1172,-1.1174,-1.1177,-1.112,-1.1173,-1.1173,-1.1172,-1.1172,-1.1172,0,-1.1067,-1.1071,-1.1084,-1.1097,-1.1109,-1.11,-1.1109,-1.112,-1.1137,-1.1145,-1.1157,-1.1176,-1.1192,-1.1195,-1.121,-1.1222,-1.1218,-1.1226,-1.1225,-1.1226,-1.1183,-1.1177,-1.1228,-1.1228,-1.1228,-1.1228,-1.1228,-1.1228,-1.1096,-1.112,-1.1119,-1.1145,-1.1149,-1.1167,-1.1174,-1.1182,-1.1188,-1.121,-1.1223,-1.1225,-1.1231,-1.1246,-1.126,-1.1261,-1.1267,-1.1276,-1.1275,-1.1235,-1.1229,-1.1224,-1.1218,-1.1277,-1.1277,-1.1317,-1.1317,-1.1317]},{"header":{"parameterUnit":"m.s-1","parameterCategory":1,"la1":30.2991,"la2":30.254,"lo1":-89.0895,"lo2":-89.0444,"dy":0.0017,"dx":0.0017,"nx":28,"ny":28,"refTime":"2023-09-10T09:00:00:Z","depth":0,"parameterNumber":3,"parameterNumberName":"V-component_of_WINDS"},"data":[0,0,0,0,0,0,0,0,0,0,0,0,0,0,0,0,0,0,0,0,0,0,0,0,0,0,0,0,0,0,0,0,0,0,0,0,0,0,0,0,0,0,0,0,0,0,0,0,0,0,0,0,0,0,0,0,0,0,3.2104,3.2105,0,3.2114,3.2114,3.2114,3.2068,3.2067,3.2065,3.2064,3.2072,3.2074,3.2075,0,0,0,0,0,0,0,0,0,0,0,0,0,3.2045,3.2047,3.2104,3.2105,3.2105,3.2114,3.2114,3.2114,3.2068,3.2066,3.2065,3.2063,3.2072,3.2073,3.2075,0,0,0,0,0,0,0,0,0,0,0,0,0,3.2064,3.2047,3.2104,3.2083,3.2081,3.2114,3.2114,3.2114,3.2068,3.2066,3.2064,3.2063,3.2071,3.2073,3.2075,3.2129,0,0,3.2082,3.2083,0,0,0,0,0,0,0,0,3.2063,3.2067,3.2086,3.2084,3.2082,3.2088,3.2096,3.2119,3.2069,3.2073,3.2064,3.2062,3.2079,3.208,3.2086,3.2129,3.2129,3.2082,3.2084,3.2085,3.2085,0,0,0,0,0,0,0,3.2062,3.2066,3.2108,3.2086,3.2084,3.2072,3.2073,3.21,3.2087,3.2073,3.2069,3.2071,3.2077,3.2084,3.2086,3.213,3.2082,3.2084,3.2085,3.2086,3.2215,3.2217,0,0,0,0,0,0,3.2064,3.2065,3.2108,3.2108,3.2068,3.2075,3.2075,3.2088,3.2087,3.2084,3.2073,3.2069,3.2082,3.2084,3.2086,3.2147,3.2084,3.2087,3.2088,3.2213,3.2215,3.2217,0,0,0,0,0,0,3.2063,3.2068,3.2107,3.2086,3.209,3.2078,3.2092,3.2089,3.2096,3.2087,3.2084,3.2082,3.208,3.2083,3.2118,3.2147,3.2088,3.209,3.221,3.2213,3.2216,3.227,0,0,0,0,0,0,3.2061,3.2068,3.2089,3.2087,3.2091,3.214,3.2094,3.2091,3.21,3.2095,3.2095,3.2093,3.2079,3.2115,3.212,3.2148,3.2091,3.2207,3.2212,3.2215,3.2265,3.2274,3.2282,0,0,0,0,0,3.2059,3.2103,3.209,3.2095,3.2117,3.2141,3.2144,3.2127,3.2103,3.2122,3.2116,3.2093,3.2143,3.2119,3.2125,3.2154,3.2206,3.221,3.2215,3.2261,3.2272,3.2282,0,0,0,0,0,0,3.2108,3.2103,3.2088,3.2132,3.2138,3.2134,3.2158,3.214,3.2152,3.2146,3.2125,3.2125,3.2163,3.2162,3.2136,3.2205,3.217,3.2176,3.2203,3.2214,3.2222,3.222,3.2093,0,0,0,0,0,3.2125,3.2146,3.2139,3.2179,3.2183,3.217,3.2181,3.2167,3.2172,3.2174,3.217,3.2175,3.2192,3.2203,3.2218,3.2266,3.2264,3.2288,3.2297,3.2304,3.2308,3.2332,3.2342,3.2233,3.2233,3.2233,0,0,3.2158,3.2157,3.2172,3.2189,3.2192,3.2213,3.2173,3.2197,3.2212,3.2177,3.2209,3.2207,3.2211,3.2252,3.227,3.2253,3.2339,3.231,3.2315,3.2316,3.2338,3.2348,3.2357,3.2236,3.2236,3.2235,0,0,3.2229,3.2232,3.2264,3.2268,3.2272,3.2264,3.2272,3.227,3.2267,3.23,3.2273,3.2291,3.2321,3.2324,3.233,3.2402,3.238,3.2408,3.2451,3.2474,3.2482,3.249,3.2514,3.2523,3.2413,3.2413,3.2414,0,3.2269,3.2301,3.2283,3.231,3.2317,3.2287,3.2319,3.2323,3.2333,3.2338,3.2319,3.2354,3.2355,3.2396,3.2413,3.242,3.2427,3.2407,3.2483,3.249,3.2497,3.2519,3.2528,3.2417,3.2416,3.2416,3.2416,0,3.235,3.2372,3.2398,3.2407,3.2418,3.2448,3.2434,3.2447,3.2433,3.2426,3.2458,3.2458,3.2472,3.2481,3.2468,3.252,3.2508,3.2487,3.2451,3.251,3.2531,3.254,3.2421,3.242,3.2419,3.2418,0,0,3.2451,3.245,3.246,3.2463,3.2466,3.2482,3.251,3.2523,3.2534,3.2542,3.2563,3.2589,3.2568,3.2575,3.2562,3.2582,3.2637,3.2557,3.2557,3.257,3.2693,3.2708,3.2718,3.2624,3.2626,3.2627,3.2692,0,3.2519,3.2565,3.255,3.2597,3.2617,3.2588,3.2612,3.2616,3.2611,3.2626,3.262,3.2638,3.261,3.2614,3.2633,3.2627,3.2661,3.2622,3.2642,3.2643,3.264,3.2729,3.2745,3.2806,3.27,3.2701,3.2702,0,3.2604,3.2614,3.2663,3.2662,3.2669,3.2691,3.2701,3.2717,3.2721,3.2715,3.2723,3.2705,3.2731,3.2697,3.2732,3.2706,3.2713,3.2712,3.2713,3.2713,3.2675,3.2729,3.2826,3.2834,3.2715,3.2714,3.2713,0,3.267,3.2697,3.2729,3.2733,3.2733,3.2748,3.2749,3.275,3.2759,3.2769,3.2774,3.2787,3.2793,3.2803,3.2789,3.2766,3.2825,3.279,3.282,3.282,3.2832,3.2831,3.2929,3.2841,3.2841,3.284,3.284,0,3.2746,3.2777,3.2758,3.2778,3.2811,3.2794,3.2827,3.2824,3.2826,3.2844,3.2821,3.2838,3.2819,3.2835,3.2824,3.2854,3.2857,3.2853,3.2849,3.2854,3.2854,3.2857,3.2851,3.2843,3.2842,3.2842,3.2841,0,3.2825,3.2814,3.2847,3.2844,3.2844,3.2868,3.2865,3.2883,3.2876,3.2899,3.2903,3.2893,3.2909,3.2897,3.2914,3.2907,3.2945,3.2937,3.2944,3.294,3.297,3.2967,3.3071,3.3083,3.2989,3.299,3.2991,0,3.2873,3.2895,3.2895,3.2905,3.2907,3.2925,3.2933,3.2917,3.2927,3.2933,3.2949,3.2964,3.2975,3.3004,3.2997,3.301,3.3,3.3036,3.3001,3.3005,3.2998,3.2996,3.2997,3.3042,3.3043,3.3044,3.3045,0,3.2959,3.2952,3.2966,3.2978,3.2989,3.2997,3.3004,3.3014,3.2997,3.301,3.3027,3.3035,3.3052,3.3067,3.3077,3.3077,3.3058,3.3056,3.3063,3.3067,3.3069,3.3066,3.296,3.3053,3.3052,3.3052,3.3051,3.3051,3.3022,3.304,3.3042,3.3058,3.3061,3.3068,3.3084,3.3079,3.3093,3.3106,3.3095,3.3115,3.3118,3.3129,3.3132,3.3147,3.3132,3.3143,3.3145,3.3147,3.3151,3.3069,3.3149,3.3149,3.3148,3.3148,3.3148,0,3.3105,3.3105,3.312,3.3129,3.3142,3.3123,3.313,3.3141,3.3159,3.3163,3.3174,3.3193,3.3207,3.3202,3.3214,3.3227,3.3218,3.3231,3.3228,3.3228,3.3164,3.3156,3.3237,3.3237,3.3237,3.3237,3.3237,3.3237,3.3149,3.3179,3.3173,3.3203,3.3203,3.3222,3.3227,3.3232,3.3235,3.3258,3.3269,3.3266,3.3266,3.3278,3.329,3.3288,3.3292,3.3307,3.3302,3.3242,3.3233,3.3225,3.3216,3.3309,3.3309,3.3365,3.3365,3.3366]}]]